Weather History for Kerkyra, Greece

Change the Weather History Date:

Wednesday, November 21, 2012

  Actual Average Record
Temperature  
Mean Temperature 64 °F -  
Max Temperature 71 °F 62 °F 71 °F (2012)
Min Temperature 57 °F 46 °F 30 °F (2005)
Degree Days  
Heating Degree Days 1    
Growing Degree Days 14 (Base 50)    
Moisture  
Dew Point 59 °F    
Average Humidity 85    
Maximum Humidity 100    
Minimum Humidity 59    
Precipitation  
Precipitation 0.00 in 0.24 in - ()
Sea Level Pressure  
Sea Level Pressure 29.98 in    
Wind  
Wind Speed 2 mph ()    
Max Wind Speed 7 mph    
Max Gust Speed -    
Visibility 6.3 miles    
Events Rain , Thunderstorm    
Averages and records for this station are not official NWS values.
T = Trace of Precipitation, MM = Missing Value Source: Averaged Metar Reports

Daily Weather History Graph

Daily Weather History Graph

Search for Another Location

Airport:

Trip Planner

Search our weather history database for the weather conditions in past years. The results will help you decide how hot, cold, wet, or windy it might be!

Date:

Astronomy

Nov. 21, 2012 Rise Set
Actual Time 7:31 AM EET 5:20 PM EET
Civil Twilight 7:02 AM EET 5:49 PM EET
Nautical Twilight 6:29 AM EET 6:22 PM EET
Astronomical Twilight 5:57 AM EET 6:54 PM EET
Moon 1:26 PM EET (11/21) 12:33 AM EET (11/21)
Length of Visible Light 10h 47m
Length of Day
9h 49m
First Quarter, 58% of the Moon is Illuminated
Nov 21
First Quarter
Nov 28
Full
Dec 6
Last Quarter
Dec 13
New
Dec 20
First Quarter

Hourly Weather History & Observations

Time (EET) Temp. Dew Point Humidity Pressure Visibility Wind Dir Wind Speed Gust Speed Precip Events Conditions
12:50 AM 60.8 °F 59.0 °F 94% 29.95 in 6.2 mi Calm Calm - N/A   Overcast
1:20 AM 60.8 °F 59.0 °F 94% 29.95 in 6.2 mi Calm Calm - N/A Thunderstorm Thunderstorm
1:50 AM 60.8 °F 59.0 °F 94% 29.95 in 6.2 mi Calm Calm - N/A Thunderstorm Thunderstorm
2:00 AM 60 °F 59 °F 96% 29.96 in 6 mi Calm Calm - - Thunderstorm Thunderstorm
2:20 AM 60.8 °F 59.0 °F 94% 29.95 in 6.2 mi Calm Calm - N/A Thunderstorm Thunderstorm
2:50 AM 60.8 °F 59.0 °F 94% 29.95 in 6.2 mi Calm Calm - N/A Thunderstorm Thunderstorm
3:20 AM 60.8 °F 59.0 °F 94% 29.95 in 6.2 mi SSE 5.8 mph - N/A   Mostly Cloudy
3:50 AM 60.8 °F 59.0 °F 94% 29.95 in 6.2 mi SSE 5.8 mph - N/A   Mostly Cloudy
4:20 AM 60.8 °F 59.0 °F 94% 29.95 in 6.2 mi SSE 5.8 mph - N/A   Mostly Cloudy
4:50 AM 59.0 °F 59.0 °F 100% 29.95 in 6.2 mi SSE 6.9 mph - N/A   Mostly Cloudy
5:20 AM 59.0 °F 57.2 °F 94% 29.95 in 6.2 mi SSE 6.9 mph - N/A   Mostly Cloudy
5:50 AM 60.8 °F 59.0 °F 94% 29.95 in 6.2 mi SSE 6.9 mph - N/A   Mostly Cloudy
6:20 AM 60.8 °F 59.0 °F 94% 29.95 in 6.2 mi SSE 6.9 mph - N/A Rain Light Rain
6:50 AM 60.8 °F 57.2 °F 88% 29.95 in 6.2 mi Calm Calm - N/A   Mostly Cloudy
7:20 AM 60.8 °F 57.2 °F 88% 29.95 in 6.2 mi Calm Calm - N/A   Mostly Cloudy
7:50 AM 60.8 °F 59.0 °F 94% 29.95 in 6.2 mi Calm Calm - N/A   Mostly Cloudy
8:00 AM 60 °F 59 °F 94% 29.97 in 6 mi Calm Calm - -   Partly Cloudy
8:20 AM 60.8 °F 59.0 °F 94% 29.95 in 6.2 mi Calm Calm - N/A   Mostly Cloudy
8:50 AM 60.8 °F 59.0 °F 94% 29.95 in 6.2 mi Calm Calm - N/A   Mostly Cloudy
9:20 AM 62.6 °F 60.8 °F 94% 29.95 in 6.2 mi Calm Calm - N/A   Mostly Cloudy
9:50 AM 62.6 °F 60.8 °F 94% 29.98 in 6.2 mi Calm Calm - N/A   Mostly Cloudy
10:20 AM 62.6 °F 60.8 °F 94% 29.98 in 6.2 mi Calm Calm - N/A   Mostly Cloudy
10:50 AM 66.2 °F 62.6 °F 88% 29.98 in 6.2 mi Calm Calm - N/A   Scattered Clouds
11:20 AM 68.0 °F 64.4 °F 88% 29.98 in 6.2 mi ESE 4.6 mph - N/A   Scattered Clouds
11:50 AM 69.8 °F 57.2 °F 64% 29.98 in 6.2 mi South 4.6 mph - N/A   Scattered Clouds
12:20 PM 69.8 °F 57.2 °F 64% 29.98 in 6.2 mi South 4.6 mph - N/A   Scattered Clouds
12:50 PM 69.8 °F 59.0 °F 68% 29.98 in 6.2 mi SSE 4.6 mph - N/A   Scattered Clouds
1:20 PM 69.8 °F 59.0 °F 68% 29.98 in 6.2 mi SSE 4.6 mph - N/A   Scattered Clouds
1:50 PM 71.6 °F 59.0 °F 64% 29.98 in 6.2 mi SSE 4.6 mph - N/A   Scattered Clouds
2:00 PM 71 °F 60 °F 59% 29.99 in 12 mi SSE 4.6 mph - -   Scattered Clouds
2:20 PM 71.6 °F 59.0 °F 64% 29.98 in 6.2 mi South 5.8 mph - N/A   Scattered Clouds
2:50 PM 71.6 °F 59.0 °F 64% 29.98 in 6.2 mi SSE 5.8 mph - N/A   Scattered Clouds
3:20 PM 71.6 °F 59.0 °F 64% 29.98 in 6.2 mi SSE 5.8 mph - N/A   Scattered Clouds
3:50 PM 71.6 °F 59.0 °F 64% 29.98 in 6.2 mi SSE 5.8 mph - N/A   Scattered Clouds
4:20 PM 68.0 °F 59.0 °F 73% 29.98 in 6.2 mi South 5.8 mph - N/A   Mostly Cloudy
4:50 PM 66.2 °F 59.0 °F 78% 29.98 in 6.2 mi SSW 3.5 mph - N/A   Mostly Cloudy
5:20 PM 64.4 °F 59.0 °F 83% 29.98 in 6.2 mi SSW 3.5 mph - N/A   Mostly Cloudy
5:50 PM 62.6 °F 59.0 °F 88% 30.01 in 6.2 mi Calm Calm - N/A   Mostly Cloudy
6:20 PM 62.6 °F 59.0 °F 88% 30.01 in 6.2 mi Calm Calm - N/A   Mostly Cloudy
6:50 PM 62.6 °F 59.0 °F 88% 30.01 in 6.2 mi Calm Calm - N/A   Mostly Cloudy
7:20 PM 62.6 °F 59.0 °F 88% 30.01 in 6.2 mi Calm Calm - N/A   Mostly Cloudy
7:50 PM 60.8 °F 57.2 °F 88% 30.01 in 6.2 mi Calm Calm - N/A   Mostly Cloudy
8:00 PM 62 °F 58 °F 81% 30.02 in 6 mi Calm Calm - -   Scattered Clouds
8:20 PM 60.8 °F 57.2 °F 88% 30.01 in 6.2 mi Calm Calm - N/A   Mostly Cloudy
8:50 PM 60.8 °F 57.2 °F 88% 30.01 in 6.2 mi Calm Calm - N/A   Mostly Cloudy
9:20 PM 60.8 °F 57.2 °F 88% 30.01 in 6.2 mi Calm Calm - N/A   Mostly Cloudy
9:50 PM 59.0 °F 55.4 °F 88% 30.04 in 6.2 mi Calm Calm - N/A   Scattered Clouds
10:20 PM 59.0 °F 55.4 °F 88% 30.04 in 6.2 mi Calm Calm - N/A   Scattered Clouds
10:50 PM 57.2 °F 55.4 °F 94% 30.04 in 6.2 mi Calm Calm - N/A   Scattered Clouds
11:20 PM 57.2 °F 55.4 °F 94% 30.04 in 6.2 mi Calm Calm - N/A   Scattered Clouds
11:50 PM 57.2 °F 55.4 °F 94% 30.04 in 6.2 mi Calm Calm - N/A   Scattered Clouds